CDT,Max TemperatureF,Mean TemperatureF,Min TemperatureF,Max Dew PointF,MeanDew PointF,Min DewpointF,Max Humidity, Mean Humidity, Min Humidity, Max Sea Level PressureIn, Mean Sea Level PressureIn, Min Sea Level PressureIn, Max VisibilityMiles, Mean VisibilityMiles, Min VisibilityMiles, Max Wind SpeedMPH, Mean Wind SpeedMPH, Max Gust SpeedMPH,PrecipitationIn, CloudCover, Events, WindDirDegrees
2013-5-1,79,67,55,61,57,50,100,76,52,30.08,30.01,29.94,10,10,9,17,5,23,0.00,1,Thunderstorm,128
2013-5-2,70,55,40,63,52,39,100,88,76,30.14,30.12,30.05,10,6,2,16,7,23,0.82,6,Rain,349
2013-5-3,40,37,34,38,35,32,100,93,85,30.10,29.98,29.90,10,6,2,16,10,23,0.30,8,Rain,310
2013-5-4,47,41,34,39,33,30,96,75,53,30.00,29.90,29.84,10,10,6,14,4,17,0.01,7,Rain-Snow,216
2013-5-5,54,45,35,52,45,33,100,83,66,30.01,29.97,29.94,10,7,1,14,8,18,0.23,6,Rain,320
2013-5-6,70,62,54,54,52,49,93,71,49,30.01,29.96,29.92,10,9,4,17,9,23,0.02,8,Rain,342
2013-5-7,75,64,52,59,53,50,100,72,44,30.04,30.01,29.99,10,10,2,10,3,14,0.07,5,Rain,343
2013-5-8,77,64,51,59,54,50,100,71,41,30.06,30.02,29.97,10,10,10,12,5,28,0.00,3,,214
2013-5-9,79,70,61,61,57,53,93,69,45,30.02,29.95,29.88,10,9,2,22,7,29,0.11,5,Rain-Thunderstorm,219
2013-5-10,74,63,51,59,55,50,96,77,57,30.03,29.93,29.88,10,10,10,15,6,22,0.01,5,,302
2013-5-11,74,61,48,52,45,29,96,60,24,30.17,30.06,30.01,10,9,6,18,8,28,0.00,2,,329
2013-5-12,66,52,38,41,31,26,79,52,24,30.28,30.21,30.15,10,10,10,15,4,22,0.00,0,,336
2013-5-13,74,59,44,49,40,31,83,57,31,30.25,30.17,30.06,10,10,10,14,4,21,0.00,2,,142
2013-5-14,90,74,58,53,49,46,72,48,24,30.04,29.99,29.94,10,10,10,20,9,26,0.00,0,,237
2013-5-15,80,71,62,64,59,49,93,73,53,30.01,29.96,29.90,10,10,10,13,7,18,0.00,2,Thunderstorm,214
2013-5-16,70,66,62,63,59,53,100,79,57,29.98,29.92,29.88,10,8,3,17,7,25,0.07,6,Rain,145
2013-5-17,74,67,59,65,63,59,100,87,73,29.99,29.94,29.89,10,5,0,7,1,15,0.07,7,Fog-Rain,83
2013-5-18,79,70,60,72,66,59,100,87,74,30.02,29.95,29.88,10,6,0,12,5,16,0.00,7,Fog,140
2013-5-19,84,77,70,70,68,61,100,72,44,29.94,29.85,29.75,10,6,0,22,10,30,0.00,4,Fog,161
2013-5-20,77,70,63,70,65,60,100,88,76,29.92,29.85,29.75,10,9,1,29,7,39,0.97,6,Rain-Thunderstorm,180
2013-5-21,69,64,58,63,60,57,100,88,76,29.91,29.83,29.66,10,10,8,24,7,33,0.23,4,Rain-Thunderstorm,221
2013-5-22,76,67,57,59,56,53,100,77,53,29.94,29.82,29.76,10,10,10,16,7,23,0.00,3,,258
2013-5-23,76,65,53,56,53,51,93,71,49,30.19,30.05,29.93,10,10,7,15,7,22,0.00,0,,331
2013-5-24,71,58,45,51,44,39,96,64,31,30.37,30.29,30.21,10,9,5,15,6,21,0.00,0,,78
2013-5-25,75,60,44,58,50,41,89,71,53,30.29,30.23,30.13,10,10,10,13,6,17,0.00,1,,150
2013-5-26,83,69,54,66,60,53,93,74,54,30.17,30.10,30.03,10,10,10,16,7,22,0.00,1,,178
2013-5-27,82,72,62,66,62,60,93,72,51,30.03,29.95,29.85,10,10,10,18,10,24,0.00,1,,187
2013-5-28,82,75,67,65,63,62,87,71,54,29.94,29.89,29.83,10,10,10,20,10,28,0.00,0,,176
2013-5-29,82,74,65,65,63,58,93,69,45,29.98,29.91,29.83,10,10,10,18,10,25,0.00,1,,168
2013-5-30,80,72,63,70,66,61,90,74,58,29.93,29.88,29.81,10,9,1,29,12,44,2.01,6,Rain-Thunderstorm,171
2013-5-31,80,72,63,73,67,62,93,84,74,29.93,29.86,29.74,10,8,0,18,9,24,0.62,7,Fog-Rain-Thunderstorm,175